Torna al catalogo

ONEWEB-0178

AttivoComunicazioniPO
NORAD 48075·PAYLOAD·🇬🇧 United Kingdom

Lanciato Mar 25, 2021 da Vostochny Cosmodrome

Loading…

Prossimi Passaggi (prossime 24 ore)

TLE

AggiornatoSource: CelesTrak SupGP

Epoca: Sep 14, 2026, 15:30 UTC

1 48075C 21025AK  26257.64634676 -.00000829  00000+0 -22723-2 0  2573
2 48075  87.8918 302.4344 0001759  90.0035   9.6952 13.13473848    10

Traccia ONEWEB-0178 in tempo reale con AllMySat

Download on the App Store